Change the Weather History Date:

Monday, July 1, 2013

  Actual Average Record
Temperature  
Mean Temperature 64 °F -  
Max Temperature 67 °F - - ()
Min Temperature 60 °F - - ()
Degree Days  
Heating Degree Days 2    
Growing Degree Days 14 (Base 50)    
Moisture  
Dew Point 58 °F    
Average Humidity 78    
Maximum Humidity 90    
Minimum Humidity 67    
Precipitation  
Precipitation 0.00 in - - ()
Sea Level Pressure  
Sea Level Pressure 30.00 in    
Wind  
Wind Speed 12 mph ()    
Max Wind Speed 21 mph    
Max Gust Speed -    
T = Trace of Precipitation, MM = Missing Value Source: Averaged Metar Reports

Daily Weather History Graph

Daily Weather History Graph

Search for Another Location

Airport or City:

Trip Planner

Search our weather history database for the weather conditions in past years. The results will help you decide how hot, cold, wet, or windy it might be!

Date:

Astronomy

Jul. 01, 2013 Rise Set
Actual Time 5:40 AM EDT 9:00 PM EDT
Civil Twilight 5:05 AM EDT 9:35 PM EDT
Nautical Twilight 4:19 AM EDT 10:21 PM EDT
Astronomical Twilight 3:22 AM EDT 11:18 PM EDT
Moon 1:16 AM EDT (7/1) 3:08 PM EDT (7/1)
Length of Visible Light 16h 30m
Length of Day
15h 19m
Waning Crescent, 35% of the Moon is Illuminated
Jul 1
Waning Crescent
Jul 8
New
Jul 15
First Quarter
Jul 22
Full
Jul 29
Last Quarter

Hourly Weather History & Observations

Time (EDT) Temp. Dew Point Humidity Pressure Visibility Wind Dir Wind Speed Gust Speed Precip Events Conditions
12:00 AM 68.2 °F 63.0 °F 83% 29.93 in - North 8.1 mph - N/A   Unknown
1:00 AM 68.2 °F 63.0 °F 83% 29.93 in - NE 8.1 mph - N/A   Unknown
2:00 AM 68 °F 60 °F 70% 29.94 in - NE 11.5 mph - -  
2:00 AM 67.6 °F 60.4 °F 78% 29.94 in - NE 11.5 mph - N/A   Unknown
3:00 AM 67.5 °F 60.8 °F 79% 29.93 in - ENE 16.1 mph - N/A   Unknown
4:00 AM 66.0 °F 59.9 °F 81% 29.94 in - NNE 16.1 mph - N/A   Unknown
5:00 AM 65 °F 59 °F 75% 29.95 in - NNE 16.1 mph - -  
5:00 AM 65.5 °F 59.0 °F 80% 29.95 in - NNE 16.1 mph - N/A   Unknown
6:00 AM 64.4 °F 58.3 °F 80% 29.97 in - NNE 15.0 mph - N/A   Unknown
7:00 AM 64.2 °F 58.1 °F 80% 29.98 in - ENE 15.0 mph - N/A   Unknown
8:00 AM 64 °F 58 °F 73% 29.98 in - ENE 15.0 mph - -  
8:00 AM 64.4 °F 57.6 °F 78% 29.98 in - ENE 15.0 mph - N/A   Unknown
9:00 AM 64.0 °F 57.7 °F 80% 30.00 in - ENE 15.0 mph - N/A   Unknown
10:00 AM 64.2 °F 58.3 °F 81% 30.01 in - ENE 15.0 mph - N/A   Unknown
11:00 AM 64 °F 58 °F 75% 30.01 in - ENE 15.0 mph - -  
11:00 AM 64.2 °F 57.9 °F 80% 30.01 in - ENE 15.0 mph - N/A   Unknown
12:00 PM 64.0 °F 57.0 °F 78% 30.01 in - ENE 13.8 mph - N/A   Unknown
1:00 PM 63.7 °F 57.0 °F 79% 30.03 in - NE 12.7 mph - N/A   Unknown
2:00 PM 64 °F 56 °F 67% 30.02 in - NE 13.8 mph - -  
2:00 PM 64.2 °F 55.6 °F 73% 30.02 in - NE 13.8 mph - N/A   Unknown
3:00 PM 64.0 °F 56.8 °F 77% 30.01 in - ENE 9.2 mph - N/A   Unknown
4:00 PM 64.2 °F 57.9 °F 80% 30.02 in - ENE 6.9 mph - N/A   Unknown
5:00 PM 64 °F 59 °F 77% 30.02 in - NE 6.9 mph - -  
5:00 PM 64.2 °F 58.6 °F 82% 30.02 in - NE 6.9 mph - N/A   Unknown
6:00 PM 64.8 °F 59.0 °F 82% 30.03 in - NNE 8.1 mph - N/A   Unknown
7:00 PM 65.1 °F 58.3 °F 78% 30.04 in - NE 12.7 mph - N/A   Unknown
8:00 PM 64 °F 56 °F 68% 30.05 in - NNE 19.6 mph - -  
8:00 PM 64.0 °F 56.1 °F 75% 30.05 in - NNE 19.6 mph - N/A   Unknown
9:00 PM 62.4 °F 55.8 °F 79% 30.06 in - ENE 18.4 mph - N/A   Unknown
10:00 PM 60.3 °F 57.2 °F 90% 30.08 in - NNE 12.7 mph - N/A   Unknown
11:00 PM 61 °F 55 °F 76% 30.08 in - NNE 20.7 mph - -  
11:00 PM 60.6 °F 55.4 °F 83% 30.08 in - NNE 20.7 mph - N/A   Unknown